Harrisburg, IL

3:03 AM CDT on July 22, 2017 (GMT -0500)
Harrisburg-Raleigh

Weather History for KHSB - November, 2013

Change the Weather History Date:

Sunday, November 24, 2013

  Actual Average (KMWA) Record (KMWA)
Temperature  
Mean Temperature 22 °F -  
Max Temperature 30 °F 51 °F 69 °F (1993)
Min Temperature 15 °F 31 °F 12 °F (1970)
Degree Days  
Heating Degree Days 42    
Moisture  
Dew Point 13 °F    
Average Humidity 64    
Maximum Humidity 80    
Minimum Humidity 44    
Precipitation  
Precipitation 0.00 in - - ()
Sea Level Pressure  
Sea Level Pressure 30.66 in    
Wind  
Wind Speed 5 mph (NNE)    
Max Wind Speed 9 mph    
Max Gust Speed -    
Visibility 10 miles    
Events      
Averages and records for this station are not official NWS values.
T = Trace of Precipitation, MM = Missing Value Source: NWS Daily Summary

Daily Weather History Graph

Daily Weather History Graph

Search for Another Location

Airport or City:

Trip Planner

Search our weather history database for the weather conditions in past years. The results will help you decide how hot, cold, wet, or windy it might be!

Date:

Astronomy

Nov. 24, 2013 Rise Set
Actual Time 6:44 AM CST 4:37 PM CST
Civil Twilight 6:15 AM CST 5:06 PM CST
Nautical Twilight 5:43 AM CST 5:38 PM CST
Astronomical Twilight 5:12 AM CST 6:09 PM CST
Moon 10:59 PM CST (11/24) 11:34 AM CST (11/24)
Length of Visible Light 10h 50m
Length of Day
9h 53m
Waning Gibbous, 60% of the Moon is Illuminated
Nov 24
Waning Gibbous
Nov 25
Last Quarter
Dec 2
New
Dec 9
First Quarter
Dec 17
Full

Hourly Weather History & Observations

Time (CST) Temp. Windchill Dew Point Humidity Pressure Visibility Wind Dir Wind Speed Gust Speed Precip Events Conditions
12:15 AM 21.6 °F 12.1 °F 10.6 °F 63% 30.69 in 10.0 mi North 8.1 mph - N/A   Clear
12:35 AM 20.8 °F 14.4 °F 10.9 °F 66% 30.70 in 10.0 mi North 4.6 mph - N/A   Clear
12:55 AM 20.3 °F 12.5 °F 11.1 °F 68% 30.70 in 10.0 mi North 5.8 mph - N/A   Clear
1:15 AM 19.8 °F 13.2 °F 11.7 °F 71% 30.70 in 10.0 mi North 4.6 mph - N/A   Clear
1:35 AM 19.4 °F 11.5 °F 12.0 °F 73% 30.70 in 10.0 mi North 5.8 mph - N/A   Clear
1:55 AM 19.9 °F 10.1 °F 11.5 °F 70% 30.70 in 10.0 mi North 8.1 mph - N/A   Clear
2:15 AM 19.9 °F 10.1 °F 11.1 °F 69% 30.70 in 10.0 mi North 8.1 mph - N/A   Clear
2:35 AM 19.8 °F 11.9 °F 11.1 °F 69% 30.70 in 10.0 mi North 5.8 mph - N/A   Clear
2:55 AM 19.2 °F 10.2 °F 11.5 °F 72% 30.70 in 10.0 mi North 6.9 mph - N/A   Clear
3:15 AM 19.2 °F 9.3 °F 11.3 °F 71% 30.70 in 10.0 mi North 8.1 mph - N/A   Clear
3:35 AM 18.9 °F 10.8 °F 11.3 °F 72% 30.71 in 10.0 mi North 5.8 mph - N/A   Clear
3:55 AM 19.0 °F 10.0 °F 11.1 °F 71% 30.70 in 10.0 mi North 6.9 mph - N/A   Clear
4:15 AM 18.1 °F 10.0 °F 11.3 °F 75% 30.71 in 10.0 mi North 5.8 mph - N/A   Clear
4:35 AM 18.0 °F 9.8 °F 11.1 °F 75% 30.71 in 10.0 mi North 5.8 mph - N/A   Clear
4:55 AM 17.6 °F 10.7 °F 10.9 °F 75% 30.72 in 10.0 mi North 4.6 mph - N/A   Clear
5:15 AM 17.6 °F 9.3 °F 10.9 °F 75% 30.72 in 10.0 mi North 5.8 mph - N/A   Clear
5:35 AM 17.2 °F 10.2 °F 10.9 °F 76% 30.73 in 10.0 mi North 4.6 mph - N/A   Clear
5:55 AM 17.4 °F 10.4 °F 10.4 °F 74% 30.73 in 10.0 mi North 4.6 mph - N/A   Clear
6:15 AM 17.4 °F 10.4 °F 10.4 °F 74% 30.74 in 10.0 mi North 4.6 mph - N/A   Clear
6:35 AM 16.5 °F 11.0 °F 10.2 °F 76% 30.74 in 10.0 mi North 3.5 mph - N/A   Clear
6:55 AM 15.8 °F 10.2 °F 10.6 °F 80% 30.74 in 10.0 mi North 3.5 mph - N/A   Clear
7:15 AM 17.1 °F 8.7 °F 11.1 °F 77% 30.75 in 10.0 mi North 5.8 mph - N/A   Clear
7:35 AM 18.5 °F 9.3 °F 11.3 °F 73% 30.74 in 10.0 mi North 6.9 mph - N/A   Clear
7:55 AM 19.2 °F 9.3 °F 10.9 °F 70% 30.75 in 10.0 mi North 8.1 mph - N/A   Clear
8:15 AM 19.9 °F 11.1 °F 11.5 °F 70% 30.76 in 10.0 mi North 6.9 mph - N/A   Clear
8:35 AM 21.0 °F 11.4 °F 12.0 °F 68% 30.76 in 10.0 mi North 8.1 mph - N/A   Clear
8:55 AM 21.9 °F 14.5 °F 11.7 °F 65% 30.77 in 10.0 mi NNE 5.8 mph - N/A   Clear
9:15 AM 22.8 °F 14.5 °F 11.5 °F 62% 30.76 in 10.0 mi NE 6.9 mph - N/A   Clear
9:35 AM 23.7 °F 14.7 °F 12.4 °F 62% 30.76 in 10.0 mi NNE 8.1 mph - N/A   Clear
9:55 AM 24.6 °F 15.8 °F 12.6 °F 60% 30.75 in 10.0 mi NE 8.1 mph - N/A   Clear
10:15 AM 24.8 °F 16.9 °F 12.7 °F 60% 30.75 in 10.0 mi ENE 6.9 mph - N/A   Clear
10:35 AM 26.1 °F 19.4 °F 13.5 °F 59% 30.75 in 10.0 mi NE 5.8 mph - N/A   Clear
10:55 AM 26.4 °F 18.9 °F 13.6 °F 59% 30.73 in 10.0 mi NNE 6.9 mph - N/A   Clear
11:15 AM 27.3 °F 18.4 °F 12.9 °F 55% 30.71 in 10.0 mi ENE 9.2 mph - N/A   Clear
11:35 AM 27.7 °F 18.8 °F 13.3 °F 55% 30.70 in 10.0 mi NE 9.2 mph - N/A   Clear
11:55 AM 28.4 °F 22.2 °F 13.1 °F 53% 30.69 in 10.0 mi East 5.8 mph - N/A   Clear
12:15 PM 28.4 °F 22.2 °F 12.6 °F 52% 30.68 in 10.0 mi ENE 5.8 mph - N/A   Clear
12:35 PM 28.4 °F 21.2 °F 12.6 °F 52% 30.67 in 10.0 mi ENE 6.9 mph - N/A   Clear
12:55 PM 29.1 °F - 12.2 °F 49% 30.66 in 10.0 mi Calm Calm - N/A   Clear
1:15 PM 29.3 °F 25.6 °F 12.2 °F 49% 30.65 in 10.0 mi North 3.5 mph - N/A   Clear
1:35 PM 30.4 °F 24.5 °F 12.6 °F 48% 30.63 in 10.0 mi ENE 5.8 mph - N/A   Clear
1:55 PM 30.6 °F 27.1 °F 12.7 °F 48% 30.63 in 10.0 mi East 3.5 mph - N/A   Clear
2:15 PM 30.2 °F 24.3 °F 11.5 °F 46% 30.62 in 10.0 mi NNE 5.8 mph - N/A   Clear
2:35 PM 30.4 °F 24.5 °F 12.2 °F 47% 30.62 in 10.0 mi NNW 5.8 mph - N/A   Clear
2:55 PM 30.6 °F 25.8 °F 11.7 °F 45% 30.62 in 10.0 mi North 4.6 mph - N/A   Clear
3:15 PM 30.0 °F 26.5 °F 10.4 °F 44% 30.62 in 10.0 mi NE 3.5 mph - N/A   Clear
3:35 PM 29.8 °F 24.9 °F 11.3 °F 46% 30.61 in 10.0 mi North 4.6 mph - N/A   Clear
3:55 PM 29.3 °F 24.3 °F 12.4 °F 49% 30.61 in 10.0 mi NNE 4.6 mph - N/A   Clear
4:15 PM 28.6 °F 22.4 °F 13.1 °F 52% 30.61 in 10.0 mi NNE 5.8 mph - N/A   Clear
4:35 PM 28.0 °F 24.2 °F 13.8 °F 55% 30.60 in 10.0 mi NE 3.5 mph - N/A   Clear
4:55 PM 27.5 °F 23.6 °F 14.0 °F 57% 30.59 in 10.0 mi NNE 3.5 mph - N/A   Clear
5:15 PM 27.5 °F - 14.0 °F 57% 30.60 in 10.0 mi Calm Calm - N/A   Clear
5:35 PM 27.3 °F - 14.2 °F 58% 30.60 in 10.0 mi Calm Calm - N/A   Clear
5:55 PM 27.0 °F - 14.9 °F 60% 30.60 in 10.0 mi Calm Calm - N/A   Clear
6:15 PM 26.8 °F 21.4 °F 15.1 °F 61% 30.59 in 10.0 mi ENE 4.6 mph - N/A   Clear
6:35 PM 26.4 °F 22.4 °F 15.3 °F 63% 30.58 in 10.0 mi ENE 3.5 mph - N/A   Clear
6:55 PM 26.2 °F 22.1 °F 15.3 °F 63% 30.58 in 10.0 mi NE 3.5 mph - N/A   Clear
7:15 PM 26.4 °F 22.4 °F 14.9 °F 62% 30.57 in 10.0 mi ENE 3.5 mph - N/A   Clear
7:35 PM 26.4 °F 22.4 °F 14.5 °F 61% 30.57 in 10.0 mi NE 3.5 mph - N/A   Clear
7:55 PM 26.2 °F - 15.8 °F 65% 30.57 in 10.0 mi Calm Calm - N/A   Clear
8:15 PM 26.1 °F - 16.2 °F 66% 30.56 in 10.0 mi Calm Calm - N/A   Clear
8:35 PM 26.2 °F - 16.3 °F 66% 30.56 in 10.0 mi Calm Calm - N/A   Clear
8:55 PM 26.2 °F - 17.2 °F 69% 30.55 in 10.0 mi Calm Calm - N/A   Clear
9:15 PM 26.6 °F - 17.6 °F 69% 30.56 in 10.0 mi Calm Calm - N/A   Clear
9:35 PM 27.1 °F - 16.5 °F 64% 30.56 in 10.0 mi Calm Calm - N/A   Clear
9:55 PM 27.0 °F - 18.9 °F 72% 30.56 in 10.0 mi Calm Calm - N/A   Clear
10:15 PM 27.1 °F - 18.0 °F 68% 30.54 in 10.0 mi Calm Calm - N/A   Clear
10:35 PM 26.8 °F - 18.5 °F 71% 30.55 in 10.0 mi Calm Calm - N/A   Clear
10:55 PM 26.8 °F - 19.4 °F 74% 30.53 in 10.0 mi Calm Calm - N/A   Clear
11:15 PM 27.1 °F 21.8 °F 19.6 °F 73% 30.51 in 10.0 mi East 4.6 mph - N/A   Clear
11:35 PM 27.5 °F 22.2 °F 17.6 °F 66% 30.51 in 10.0 mi East 4.6 mph - N/A   Clear
11:55 PM 27.5 °F 22.2 °F 18.1 °F 68% 30.50 in 10.0 mi East 4.6 mph - N/A   Clear